When you browse on this site, cookies collect data to enhance your experience and personalize the content and advertising you see.
Visit our Privacy Policy to learn more. By continuing to use the site, you agree to this use of cookies and data.
  • en France
  • Liste des pays
  • À 7 jours
  • Température de l'eau
  • Carte satellitaire
  • Carte météo
  • Widgets météo
  • user-avatar
    Se connecter

    Météo par heure à Rawson

    Ce jour, 18 Novembre, Dimanche

    Heure Température Précipitation Vent Pression Humidité
    00:00 +16°C° 0 mm 5 m/s 757 mmHg 37%
    01:00 +16°C° 0 mm 6 m/s 757 mmHg 37%
    02:00 +15°C° 0 mm 7 m/s 757 mmHg 38%
    03:00 +15°C° 0 mm 7 m/s 757 mmHg 40%
    04:00 +14°C° 0 mm 6 m/s 757 mmHg 42%
    05:00 +14°C° 0 mm 5 m/s 757 mmHg 44%
    06:00 +15°C° 0 mm 6 m/s 757 mmHg 40%
    07:00 +17°C° 0 mm 7 m/s 757 mmHg 35%
    08:00 +18°C° 0 mm 9 m/s 757 mmHg 31%
    09:00 +20°C° 0 mm 8 m/s 757 mmHg 30%
    10:00 +20°C° 0 mm 8 m/s 757 mmHg 29%
    11:00 +21°C° 0 mm 8 m/s 757 mmHg 29%
    12:00 +22°C° 0 mm 8 m/s 756 mmHg 27%
    13:00 +23°C° 0 mm 8 m/s 756 mmHg 25%
    14:00 +24°C° 0 mm 8 m/s 756 mmHg 24%
    15:00 +24°C° 0 mm 7 m/s 755 mmHg 24%
    16:00 +24°C° 0 mm 7 m/s 755 mmHg 25%
    17:00 +24°C° 0 mm 6 m/s 755 mmHg 25%
    18:00 +24°C° 0 mm 6 m/s 755 mmHg 26%
    19:00 +23°C° 0 mm 5 m/s 755 mmHg 27%
    20:00 +23°C° 0 mm 4 m/s 755 mmHg 28%
    21:00 +22°C° 0 mm 4 m/s 755 mmHg 29%
    22:00 +22°C° 0 mm 5 m/s 755 mmHg 30%
    23:00 +21°C° 0 mm 5 m/s 755 mmHg 31%

    Demain, 19 Novembre, Lundi

    Heure Température Précipitation Vent Pression Humidité
    00:00 +21°C° 0 mm 5 m/s 754 mmHg 32%
    01:00 +21°C° 0 mm 5 m/s 754 mmHg 33%
    02:00 +21°C° 0 mm 5 m/s 754 mmHg 33%
    03:00 +20°C° 0 mm 5 m/s 754 mmHg 34%
    04:00 +20°C° 0 mm 4 m/s 753 mmHg 35%
    05:00 +20°C° 0 mm 4 m/s 753 mmHg 36%
    06:00 +21°C° 0 mm 5 m/s 753 mmHg 33%
    07:00 +22°C° 0 mm 5 m/s 752 mmHg 31%
    08:00 +23°C° 0 mm 6 m/s 752 mmHg 29%
    09:00 +26°C° 0 mm 7 m/s 752 mmHg 27%
    10:00 +27°C° 0 mm 8 m/s 751 mmHg 26%
    11:00 +28°C° 0 mm 10 m/s 751 mmHg 24%
    12:00 +29°C° 0 mm 10 m/s 751 mmHg 23%
    13:00 +29°C° 0 mm 10 m/s 750 mmHg 22%
    14:00 +31°C° 0 mm 10 m/s 750 mmHg 21%
    15:00 +31°C° 0 mm 10 m/s 750 mmHg 21%
    16:00 +31°C° 0 mm 10 m/s 750 mmHg 21%
    17:00 +29°C° 0 mm 10 m/s 750 mmHg 21%
    18:00 +28°C° 0 mm 9 m/s 750 mmHg 23%
    19:00 +27°C° 0 mm 9 m/s 751 mmHg 24%
    20:00 +26°C° 0 mm 8 m/s 752 mmHg 26%
    21:00 +26°C° 0 mm 8 m/s 752 mmHg 28%
    22:00 +24°C° 0 mm 7 m/s 753 mmHg 29%
    23:00 +23°C° 0 mm 7 m/s 753 mmHg 31%

    Après-demain, 20 Novembre, Mardi

    Heure Température Précipitation Vent Pression Humidité
    00:00 +23°C° 0 mm 7 m/s 753 mmHg 32%
    01:00 +22°C° 0 mm 6 m/s 753 mmHg 34%
    02:00 +22°C° 0 mm 6 m/s 753 mmHg 35%
    03:00 +21°C° 0 mm 5 m/s 753 mmHg 37%
    04:00 +20°C° 0 mm 4 m/s 753 mmHg 39%
    05:00 +20°C° 0 mm 4 m/s 753 mmHg 41%
    06:00 +21°C° 0 mm 4 m/s 753 mmHg 38%
    07:00 +23°C° 0 mm 4 m/s 753 mmHg 34%
    08:00 +25°C° 0 mm 4 m/s 753 mmHg 31%
    09:00 +26°C° 0 mm 4 m/s 753 mmHg 28%
    10:00 +27°C° 0 mm 4 m/s 753 mmHg 25%
    11:00 +28°C° 0 mm 5 m/s 752 mmHg 22%
    12:00 +29°C° 0 mm 5 m/s 751 mmHg 20%
    13:00 +30°C° 0 mm 6 m/s 751 mmHg 17%
    14:00 +32°C° 0 mm 6 m/s 750 mmHg 15%
    15:00 +32°C° 0 mm 6 m/s 749 mmHg 15%
    16:00 +32°C° 0 mm 7 m/s 748 mmHg 15%
    17:00 +32°C° 0 mm 7 m/s 748 mmHg 14%
    18:00 +30°C° 0 mm 6 m/s 747 mmHg 16%
    19:00 +29°C° 0 mm 5 m/s 747 mmHg 17%
    20:00 +28°C° 0 mm 5 m/s 747 mmHg 19%
    21:00 +27°C° 0 mm 6 m/s 747 mmHg 20%
    22:00 +27°C° 0 mm 7 m/s 747 mmHg 21%
    23:00 +26°C° 0 mm 8 m/s 747 mmHg 21%

    21 Novembre, Mercredi

    Heure Température Précipitation Vent Pression Humidité
    00:00 +26°C° 0 mm 8 m/s 746 mmHg 25%
    01:00 +24°C° 0 mm 8 m/s 745 mmHg 29%
    02:00 +23°C° 0 mm 8 m/s 745 mmHg 33%
    03:00 +24°C° 0 mm 8 m/s 744 mmHg 35%
    04:00 +24°C° 0 mm 9 m/s 744 mmHg 37%
    05:00 +24°C° 0 mm 10 m/s 743 mmHg 38%
    06:00 +26°C° 0 mm 11 m/s 743 mmHg 36%
    07:00 +27°C° 0 mm 12 m/s 743 mmHg 33%
    08:00 +28°C° 0 mm 12 m/s 742 mmHg 31%
    09:00 +29°C° 0 mm 12 m/s 742 mmHg 28%
    10:00 +31°C° 0 mm 11 m/s 741 mmHg 25%
    11:00 +32°C° 0 mm 11 m/s 741 mmHg 22%
    12:00 +29°C° 0.1 mm 10 m/s 741 mmHg 27%
    13:00 +27°C° 0.1 mm 10 m/s 742 mmHg 31%
    14:00 +26°C° 0.1 mm 9 m/s 742 mmHg 36%
    15:00 +23°C° 0.4 mm 10 m/s 744 mmHg 40%
    16:00 +21°C° 0.4 mm 10 m/s 745 mmHg 43%
    17:00 +18°C° 0.4 mm 10 m/s 747 mmHg 47%
    18:00 +16°C° 0.4 mm 10 m/s 749 mmHg 51%
    19:00 +14°C° 0.4 mm 11 m/s 751 mmHg 55%
    20:00 +12°C° 0.4 mm 11 m/s 754 mmHg 59%
    21:00 +12°C° 0 mm 9 m/s 755 mmHg 57%
    22:00 +13°C° 0 mm 6 m/s 757 mmHg 55%
    23:00 +13°C° 0 mm 4 m/s 758 mmHg 53%

    22 Novembre, Jeudi

    Heure Température Précipitation Vent Pression Humidité
    00:00 +13°C° 0 mm 4 m/s 759 mmHg 50%
    01:00 +13°C° 0 mm 4 m/s 759 mmHg 47%
    02:00 +13°C° 0 mm 4 m/s 760 mmHg 44%
    03:00 +11°C° 0 mm 6 m/s 760 mmHg 42%
    04:00 +11°C° 0 mm 7 m/s 761 mmHg 40%
    05:00 +10°C° 0 mm 8 m/s 761 mmHg 38%
    06:00 +11°C° 0 mm 8 m/s 762 mmHg 36%
    07:00 +12°C° 0 mm 8 m/s 762 mmHg 33%
    08:00 +13°C° 0 mm 8 m/s 763 mmHg 31%
    09:00 +15°C° 0 mm 8 m/s 763 mmHg 28%
    10:00 +16°C° 0 mm 7 m/s 763 mmHg 25%
    11:00 +17°C° 0 mm 6 m/s 763 mmHg 23%
    12:00 +19°C° 0 mm 6 m/s 762 mmHg 21%
    13:00 +20°C° 0 mm 6 m/s 762 mmHg 19%
    14:00 +21°C° 0 mm 6 m/s 762 mmHg 17%
    15:00 +22°C° 0 mm 6 m/s 761 mmHg 16%
    16:00 +22°C° 0 mm 6 m/s 761 mmHg 15%
    17:00 +22°C° 0 mm 5 m/s 760 mmHg 14%
    18:00 +21°C° 0 mm 5 m/s 760 mmHg 17%
    19:00 +21°C° 0 mm 5 m/s 760 mmHg 19%
    20:00 +20°C° 0 mm 4 m/s 760 mmHg 22%
    21:00 +19°C° 0 mm 5 m/s 760 mmHg 23%
    22:00 +17°C° 0 mm 6 m/s 761 mmHg 24%
    23:00 +17°C° 0 mm 7 m/s 761 mmHg 26%

    23 Novembre, Vendredi

    Heure Température Précipitation Vent Pression Humidité
    00:00 +16°C° 0 mm 7 m/s 760 mmHg 34%
    01:00 +15°C° 0 mm 7 m/s 760 mmHg 42%
    02:00 +14°C° 0 mm 7 m/s 760 mmHg 50%
    03:00 +14°C° 0 mm 6 m/s 760 mmHg 54%
    04:00 +13°C° 0 mm 5 m/s 760 mmHg 58%
    05:00 +13°C° 0 mm 3 m/s 759 mmHg 62%
    06:00 +16°C° 0 mm 3 m/s 759 mmHg 54%
    07:00 +17°C° 0 mm 2 m/s 759 mmHg 47%
    08:00 +20°C° 0 mm 1 m/s 759 mmHg 39%
    09:00 +20°C° 0 mm 2 m/s 759 mmHg 33%
    10:00 +23°C° 0 mm 2 m/s 758 mmHg 27%
    11:00 +24°C° 0 mm 2 m/s 758 mmHg 21%
    12:00 +25°C° 0 mm 2 m/s 758 mmHg 19%
    13:00 +27°C° 0 mm 3 m/s 757 mmHg 16%
    14:00 +28°C° 0 mm 4 m/s 756 mmHg 13%
    15:00 +28°C° 0 mm 5 m/s 756 mmHg 15%
    16:00 +28°C° 0 mm 5 m/s 755 mmHg 16%
    17:00 +28°C° 0 mm 6 m/s 755 mmHg 18%
    18:00 +27°C° 0 mm 6 m/s 754 mmHg 22%
    19:00 +26°C° 0 mm 6 m/s 754 mmHg 25%
    20:00 +24°C° 0 mm 6 m/s 754 mmHg 29%
    21:00 +24°C° 0 mm 6 m/s 754 mmHg 30%
    22:00 +23°C° 0 mm 6 m/s 755 mmHg 31%
    23:00 +23°C° 0 mm 5 m/s 755 mmHg 32%
    Voir plus